GW0760 Weather Reports


time (UTC)temp
F
wind
direction
speed
knots
gust
knots
rain 1hr
in
rain 24hr
in
rain mn
in
humidity
%
barometer
mb
20260507161503 57 340 3.5 13.0 0.00 0.32 0.00 43 1006.5
20260507161024 57 334 4.3 12.2 0.00 0.32 0.00 47 1006.5
20260507160524 57 323 4.3 11.3 0.00 0.32 0.00 46 1006.7
20260507160024 56 329 5.2 13.9 0.00 0.32 0.00 44 1006.5
20260507155503 56 338 7.0 13.9 0.00 0.32 0.00 43 1006.9
20260507155002 57 322 5.2 13.9 0.00 0.32 0.00 46 1007.0
20260507154502 57 285 3.5 13.9 0.00 0.32 0.00 48 1006.8
20260507154003 56 316 3.5 13.9 0.00 0.32 0.00 47 1006.9
20260507153503 56 341 4.3 11.3 0.00 0.32 0.00 49 1006.8
20260507153003 56 336 5.2 13.0 0.00 0.32 0.00 47 1006.9
20260507152503 56 332 7.0 20.9 0.00 0.32 0.00 49 1007.0
20260507152024 56 333 6.1 20.9 0.00 0.32 0.00 47 1007.1
20260507151503 56 330 5.2 12.2 0.00 0.32 0.00 47 1007.1
20260507151003 56 305 4.3 11.3 0.00 0.32 0.00 52 1007.1
20260507150503 56 260 3.5 9.6 0.00 0.32 0.00 50 1007.0
20260507150002 56 288 4.3 15.6 0.00 0.32 0.00 51 1007.2
20260507145503 57 282 3.5 15.6 0.00 0.32 0.00 56 1007.1
20260507145024 56 220 1.7 6.1 0.00 0.32 0.00 54 1006.9
20260507144524 55 212 1.7 6.1 0.00 0.32 0.00 61 1006.7
20260507144002 54 202 1.7 7.0 0.00 0.32 0.00 62 1006.9
20260507143503 54 285 1.7 7.0 0.00 0.32 0.00 65 1007.1
20260507143002 54 276 1.7 7.0 0.00 0.32 0.00 64 1006.7
20260507142502 54 246 1.7 7.0 0.00 0.32 0.00 68 1007.1
20260507142002 54 246 1.7 7.0 0.00 0.32 0.00 65 1007.1
20260507141524 55 236 1.7 8.7 0.00 0.32 0.00 66 1007.1
20260507141023 56 237 2.6 8.7 0.00 0.32 0.00 62 1006.9
20260507140503 56 270 2.6 7.0 0.00 0.32 0.00 67 1006.8
20260507140023 54 276 1.7 7.0 0.00 0.32 0.00 66 1006.7
20260507135502 53 278 1.7 7.0 0.00 0.32 0.00 69 1006.7
20260507135024 53 283 1.7 7.0 0.00 0.32 0.00 69 1006.8
20260507134524 54 214 0.9 7.0 0.00 0.32 0.00 71 1006.8
20260507134003 53 303 2.6 7.0 0.00 0.32 0.00 71 1007.0
20260507133503 52 306 2.6 7.0 0.00 0.32 0.00 70 1007.0
20260507133003 53 226 1.7 6.1 0.00 0.32 0.00 70 1007.2
20260507132502 53 278 2.6 11.3 0.00 0.32 0.00 68 1007.2
20260507132003 54 307 2.6 11.3 0.00 0.32 0.00 66 1007.2
20260507131502 55 297 2.6 7.8 0.00 0.32 0.00 69 1007.1
20260507131024 54 317 3.5 7.8 0.00 0.32 0.00 68 1007.1
20260507130503 54 324 4.3 9.6 0.00 0.32 0.00 66 1007.3
20260507130003 54 321 3.5 11.3 0.00 0.32 0.00 69 1007.3
20260507125503 54 290 2.6 11.3 0.00 0.32 0.00 68 1007.4
20260507125002 53 278 2.6 9.6 0.00 0.32 0.00 69 1007.4
20260507124503 53 322 3.5 9.6 0.00 0.32 0.00 69 1007.3
20260507124002 53 336 3.5 7.8 0.00 0.32 0.00 72 1007.1
20260507123503 52 331 3.5 7.8 0.00 0.32 0.00 71 1007.3
20260507123002 52 302 3.5 9.6 0.00 0.32 0.00 71 1007.3
20260507122503 52 285 2.6 9.6 0.00 0.32 0.00 71 1007.0
20260507122003 52 285 2.6 8.7 0.00 0.32 0.00 72 1007.1
20260507121523 52 287 1.7 9.6 0.00 0.32 0.00 73 1007.6
20260507121003 51 322 2.6 9.6 0.00 0.32 0.00 75 1007.4
20260507120502 51 345 2.6 8.7 0.00 0.32 0.00 77 1007.3
20260507120003 51 331 2.6 8.7 0.00 0.32 0.00 78 1007.4
20260507115524 51 308 1.7 7.0 0.00 0.32 0.00 78 1007.3
20260507115003 50 197 0.9 5.2 0.00 0.32 0.00 85 1007.4
20260507114503 50 219 0.9 6.1 0.00 0.32 0.00 86 1007.5
20260507114003 49 220 1.7 6.1 0.00 0.32 0.00 87 1007.3
20260507113503 48 257 1.7 6.1 0.00 0.32 0.00 89 1007.3
20260507113003 48 256 1.7 6.1 0.00 0.32 0.00 90 1006.9
20260507112502 47 236 0.9 3.5 0.00 0.32 0.00 93 1007.1
20260507112003 46 275 0.0 3.5 0.00 0.32 0.00 93 1007.4
20260507111503 45 0 0.0 0.0 0.00 0.32 0.00 93 1007.3
20260507111003 44 0 0.0 0.0 0.00 0.32 0.00 93 1007.1
20260507110503 44 0 0.0 0.0 0.00 0.32 0.00 93 1007.1
20260507110003 44 0 0.0 0.0 0.00 0.32 0.00 93 1007.2
20260507105524 44 0 0.0 0.0 0.00 0.32 0.00 93 1007.2
20260507105002 44 0 0.0 0.0 0.00 0.32 0.00 92 1006.9
20260507104524 44 0 0.0 0.0 0.00 0.32 0.00 92 1006.7
20260507104003 44 0 0.0 0.0 0.00 0.32 0.00 91 1006.8
20260507103503 44 0 0.0 0.0 0.00 0.32 0.00 91 1006.8
20260507103003 44 211 0.0 0.9 0.00 0.32 0.00 91 1006.8
20260507102503 44 199 0.0 0.9 0.00 0.32 0.00 91 1006.9
20260507102003 44 191 0.0 0.9 0.00 0.32 0.00 91 1007.0
20260507101503 44 195 0.0 1.7 0.00 0.32 0.00 91 1007.2
20260507101024 45 198 0.0 1.7 0.00 0.32 0.00 91 1006.9
20260507100503 45 195 0.9 1.7 0.00 0.32 0.00 91 1006.4
20260507100003 45 184 0.0 0.9 0.00 0.32 0.00 91 1006.8
20260507095524 45 0 0.0 0.0 0.00 0.32 0.00 90 1007.1
20260507095024 45 185 0.0 0.9 0.00 0.32 0.00 91 1007.0
20260507094503 45 185 0.0 0.9 0.00 0.32 0.00 91 1006.5
20260507094003 45 0 0.0 0.0 0.00 0.32 0.00 90 1006.8
20260507093502 45 0 0.0 0.0 0.00 0.32 0.00 90 1007.0
20260507093003 45 189 0.0 1.7 0.00 0.32 0.00 90 1007.1
20260507092503 46 196 0.9 1.7 0.00 0.32 0.00 90 1006.9
20260507092003 46 197 0.9 1.7 0.00 0.32 0.00 90 1007.0
20260507091503 46 194 0.0 1.7 0.00 0.32 0.00 90 1007.1
20260507091003 46 0 0.0 0.0 0.00 0.32 0.00 89 1007.2
20260507090503 46 0 0.0 0.0 0.00 0.32 0.00 89 1007.3
20260507090002 46 0 0.0 0.0 0.00 0.32 0.00 89 1007.3
20260507085502 46 196 0.0 0.9 0.00 0.32 0.00 89 1007.5
20260507085003 46 196 0.0 0.9 0.00 0.32 0.00 89 1007.0
20260507084503 46 198 0.0 0.9 0.00 0.32 0.00 89 1006.4
20260507084024 46 203 0.0 1.7 0.00 0.32 0.00 89 1006.8
20260507083524 46 223 0.9 2.6 0.00 0.32 0.00 89 1007.0
20260507083003 46 223 0.9 2.6 0.00 0.32 0.00 89 1006.6
20260507082502 46 213 0.9 2.6 0.00 0.32 0.00 89 1006.6
20260507082003 46 216 0.9 2.6 0.00 0.32 0.00 88 1006.9
20260507081503 46 214 1.7 1.7 0.00 0.32 0.00 88 1006.5
20260507081002 47 248 1.7 5.2 0.00 0.32 0.00 88 1006.8
20260507080503 47 287 0.9 5.2 0.00 0.32 0.00 88 1006.5
20260507080003 47 228 0.0 2.6 0.00 0.32 0.00 88 1006.4
20260507075502 46 193 0.0 0.9 0.00 0.32 0.00 88 1006.5
20260507075002 46 193 0.0 0.9 0.00 0.32 0.00 88 1006.9
20260507074503 47 194 0.0 0.9 0.00 0.32 0.00 88 1007.0
20260507074003 47 205 0.0 1.7 0.00 0.32 0.00 88 1006.8
20260507073503 47 206 0.0 1.7 0.00 0.32 0.00 88 1006.7
20260507073003 47 199 0.0 1.7 0.00 0.32 0.00 88 1006.4
20260507072503 47 200 0.0 1.7 0.00 0.32 0.00 88 1006.5
20260507072003 47 204 0.0 1.7 0.00 0.32 0.00 88 1006.5
20260507071503 47 0 0.0 0.0 0.00 0.32 0.00 88 1006.1
20260507071003 47 208 0.0 0.9 0.00 0.32 0.00 88 1006.4
20260507070503 47 212 0.0 1.7 0.00 0.32 0.00 88 1006.4
20260507070004 47 253 1.7 5.2 0.00 0.32 0.00 88 1006.4
20260507065503 47 268 2.6 5.2 0.00 0.32 0.00 88 1006.0
20260507065003 47 282 2.6 7.8 0.00 0.32 0.00 88 1006.3
20260507064503 47 317 3.5 7.8 0.00 0.32 0.00 88 1006.3
20260507064003 47 323 3.5 7.8 0.00 0.32 0.00 89 1006.4
20260507063503 47 317 3.5 7.8 0.00 0.32 0.00 90 1006.4
20260507063003 48 305 2.6 7.8 0.00 0.32 0.00 90 1006.7
20260507062503 48 281 1.7 5.2 0.00 0.32 0.00 91 1006.7
20260507062003 48 239 0.9 5.2 0.00 0.32 0.00 91 1006.4
20260507061503 48 217 0.9 3.5 0.00 0.32 0.00 92 1006.4
20260507061003 48 242 0.9 3.5 0.00 0.32 0.00 92 1006.4
20260507060503 48 235 0.9 3.5 0.00 0.32 0.00 92 1006.4
20260507060003 48 211 0.9 2.6 0.00 0.32 0.00 92 1006.2
20260507055503 48 207 0.0 2.6 0.00 0.32 0.00 92 1006.2
20260507055003 48 196 0.0 2.6 0.00 0.32 0.00 92 1006.6
20260507054503 48 224 0.9 2.6 0.00 0.32 0.00 92 1006.6
20260507054003 48 215 0.9 2.6 0.00 0.32 0.00 92 1006.6
20260507053503 48 193 0.9 1.7 0.00 0.32 0.00 92 1006.4
20260507053003 48 188 0.0 1.7 0.00 0.32 0.00 91 1006.6
20260507052524 48 180 0.0 0.9 0.00 0.32 0.00 92 1006.4
20260507052003 48 186 0.0 0.9 0.00 0.32 0.00 92 1006.2
20260507051502 48 182 0.0 0.9 0.00 0.32 0.00 92 1006.5
20260507051003 48 221 0.0 2.6 0.00 0.32 0.00 92 1006.4
20260507050503 48 221 0.0 2.6 0.00 0.32 0.00 92 1006.4
20260507050003 48 282 0.9 3.5 0.00 0.32 0.00 92 1006.3
20260507045503 48 246 1.7 3.5 0.00 0.32 0.00 92 1006.2
20260507045003 49 239 1.7 6.1 0.00 0.32 0.00 92 1006.2
20260507044524 49 270 1.7 6.1 0.00 0.32 0.00 92 1006.1
20260507044003 49 249 1.7 6.1 0.00 0.32 0.00 92 1006.2
20260507043503 49 231 0.9 3.5 0.00 0.32 0.00 92 1006.1
20260507043003 49 234 1.7 3.5 0.00 0.32 0.00 92 1006.3
20260507042503 49 229 1.7 5.2 0.00 0.32 0.00 92 1006.4
20260507042003 49 237 1.7 5.2 0.00 0.32 0.00 92 1006.5
20260507041524 49 254 1.7 5.2 0.00 0.32 0.00 92 1006.7
20260507041024 49 261 1.7 6.1 0.00 0.32 0.00 92 1006.4
20260507040502 49 295 1.7 11.3 0.00 0.32 0.00 92 1006.6
20260507040024 49 297 1.7 11.3 0.01 0.32 0.00 92 1006.5
20260507035503 50 249 0.9 7.0 0.02 0.32 0.32 92 1006.6
20260507035003 50 248 0.9 7.0 0.04 0.32 0.32 92 1006.4
20260507034503 50 244 0.9 6.1 0.05 0.32 0.32 93 1006.5
20260507034003 51 230 0.9 6.1 0.06 0.32 0.32 93 1006.2
20260507033503 51 228 0.9 5.2 0.06 0.32 0.32 93 1006.3
20260507033003 51 257 1.7 6.1 0.06 0.32 0.32 93 1006.2
20260507032524 51 265 2.6 6.1 0.06 0.32 0.32 92 1006.2
20260507032003 51 287 2.6 9.6 0.06 0.32 0.32 93 1006.1
20260507031503 51 314 2.6 9.6 0.07 0.32 0.32 93 1006.2
20260507031024 51 315 3.5 7.8 0.07 0.32 0.32 93 1006.1
20260507030503 51 293 2.6 7.8 0.07 0.32 0.32 93 1006.1
20260507030003 52 306 2.6 7.0 0.06 0.31 0.31 93 1006.2
20260507025503 52 294 1.7 7.0 0.05 0.30 0.30 93 1006.4
20260507025003 53 274 1.7 5.2 0.04 0.29 0.29 93 1006.4
20260507024503 53 310 3.5 7.8 0.02 0.28 0.28 92 1006.2
20260507024003 53 300 3.5 7.8 0.02 0.27 0.27 92 1006.1
20260507023502 54 307 3.5 7.8 0.03 0.27 0.27 92 1006.0
20260507023003 54 313 2.6 7.8 0.03 0.27 0.27 93 1005.9
20260507022524 55 263 1.7 7.8 0.04 0.26 0.26 93 1005.9
20260507022003 55 237 1.7 6.1 0.10 0.26 0.26 93 1005.9
20260507021524 55 234 0.9 6.1 0.13 0.25 0.25 93 1005.5
20260507021003 56 249 0.9 7.0 0.13 0.25 0.25 93 1005.3
20260507020524 56 234 0.9 7.0 0.13 0.25 0.25 92 1005.4
20260507020002 56 208 0.9 7.0 0.13 0.25 0.25 92 1005.1
20260507015503 56 224 0.9 7.0 0.13 0.25 0.25 92 1005.3
20260507015003 56 216 0.9 5.2 0.13 0.25 0.25 92 1004.9
20260507014503 57 213 0.9 2.6 0.13 0.25 0.25 92 1004.9
20260507014003 57 297 2.6 8.7 0.13 0.25 0.25 92 1005.0
20260507013503 58 300 2.6 8.7 0.11 0.24 0.24 92 1005.0
20260507013003 59 228 1.7 6.1 0.11 0.24 0.24 92 1004.9
20260507012523 59 209 0.9 5.2 0.10 0.22 0.22 93 1004.8
20260507012003 60 203 0.9 2.6 0.04 0.16 0.16 93 1004.6
20260507011524 60 195 0.9 2.6 0.00 0.13 0.13 93 1004.5
20260507011003 59 191 0.9 2.6 0.00 0.13 0.13 93 1004.3
20260507010524 60 188 0.9 2.6 0.00 0.13 0.13 93 1004.3
20260507010003 59 193 0.9 2.6 0.00 0.13 0.13 93 1004.2
20260507005503 59 193 0.9 3.5 0.00 0.13 0.13 93 1004.3
20260507005003 59 187 0.9 3.5 0.00 0.13 0.13 93 1004.2
20260507004524 60 194 0.9 3.5 0.00 0.13 0.13 93 1004.2
20260507004003 59 197 0.9 3.5 0.00 0.13 0.13 93 1004.2
20260507003502 59 196 0.9 2.6 0.00 0.13 0.13 93 1004.1
20260507003024 59 197 0.9 5.2 0.00 0.13 0.13 93 1004.0
20260507002503 59 199 0.0 5.2 0.00 0.13 0.13 93 1003.7
20260507002003 60 189 0.0 1.7 0.00 0.14 0.13 93 1003.8
20260507001503 59 194 0.0 2.6 0.00 0.14 0.13 93 1004.1
20260507001003 59 196 0.9 3.5 0.00 0.14 0.13 93 1004.0
20260507000503 60 192 0.9 3.5 0.00 0.14 0.13 93 1003.9
20260507000003 59 195 0.9 5.2 0.00 0.14 0.13 93 1003.8
20260506235502 60 201 0.9 7.0 0.00 0.14 0.13 93 1003.8
20260506235003 60 203 0.9 7.0 0.00 0.14 0.13 93 1003.8
20260506234503 60 195 0.9 6.1 0.00 0.14 0.13 93 1003.5
20260506234003 59 191 0.9 6.1 0.00 0.14 0.13 93 1003.6
20260506233503 59 188 0.9 5.2 0.00 0.14 0.13 93 1003.7
20260506233003 60 185 0.0 3.5 0.00 0.14 0.13 93 1003.5
20260506232503 59 186 0.0 2.6 0.00 0.14 0.13 93 1003.9
20260506232003 60 194 0.9 6.1 0.00 0.14 0.13 93 1003.7
20260506231503 60 199 0.9 6.1 0.00 0.14 0.13 93 1004.0
20260506231003 60 198 0.9 5.2 0.00 0.14 0.13 93 1003.9
20260506230524 60 197 0.9 3.5 0.00 0.14 0.13 93 1003.8
20260506230003 60 197 0.9 3.5 0.00 0.14 0.13 93 1003.8
20260506225503 60 197 0.9 5.2 0.00 0.14 0.13 93 1003.8
20260506225003 60 195 0.9 5.2 0.00 0.14 0.13 93 1003.7
20260506224503 60 199 0.9 5.2 0.00 0.14 0.13 93 1003.8
20260506224003 60 205 1.7 6.1 0.00 0.14 0.13 93 1003.7
20260506223503 60 204 1.7 6.1 0.00 0.14 0.13 93 1003.9
20260506223003 60 195 0.9 3.5 0.00 0.14 0.13 93 1003.8
20260506222524 60 192 0.9 3.5 0.00 0.14 0.13 93 1003.7
20260506222003 60 193 0.9 3.5 0.00 0.14 0.13 93 1003.8
20260506221503 60 193 0.9 3.5 0.00 0.14 0.13 93 1004.1
20260506221003 60 192 0.9 2.6 0.00 0.14 0.13 93 1003.9
20260506220503 60 198 0.9 2.6 0.00 0.14 0.13 93 1004.0
20260506220003 60 198 1.7 6.1 0.00 0.14 0.13 93 1004.0
20260506215503 60 196 0.9 6.1 0.00 0.14 0.13 93 1004.1
20260506215003 60 196 0.9 6.1 0.00 0.14 0.13 93 1004.2
20260506214503 60 196 1.7 6.1 0.00 0.14 0.13 93 1004.0
20260506214003 61 199 1.7 7.0 0.00 0.14 0.13 93 1003.9
20260506213503 61 197 1.7 7.0 0.00 0.14 0.13 93 1003.9
20260506213003 60 201 1.7 7.0 0.00 0.14 0.13 93 1003.8
20260506212524 61 195 1.7 7.0 0.00 0.14 0.13 93 1004.1
20260506212003 61 189 1.7 6.1 0.00 0.14 0.13 93 1004.1
20260506211503 61 195 1.7 5.2 0.00 0.14 0.13 93 1004.2
20260506211003 61 199 1.7 6.1 0.00 0.14 0.13 93 1004.2
20260506210503 61 203 1.7 6.1 0.00 0.14 0.13 93 1004.1
20260506210003 61 205 2.6 8.7 0.00 0.14 0.13 93 1004.1
20260506205503 61 205 2.6 11.3 0.01 0.14 0.13 93 1004.1
20260506205003 61 200 1.7 11.3 0.01 0.14 0.13 93 1004.1
20260506204503 62 196 1.7 8.7 0.02 0.14 0.13 93 1004.3
20260506204003 62 194 1.7 8.7 0.03 0.14 0.13 93 1004.3
20260506203524 62 193 1.7 6.1 0.03 0.14 0.13 93 1004.3
20260506203003 61 191 0.9 6.1 0.05 0.14 0.13 93 1004.2
20260506202503 61 186 0.9 3.5 0.05 0.14 0.13 93 1004.2
20260506202003 61 189 0.9 5.2 0.05 0.14 0.13 93 1004.3
20260506201503 61 191 0.9 5.2 0.05 0.14 0.13 93 1004.5
20260506201024 61 195 0.9 3.5 0.05 0.14 0.13 93 1004.5
20260506200503 61 201 0.9 3.5 0.05 0.14 0.13 93 1004.6
20260506200003 61 192 0.9 5.2 0.05 0.14 0.13 92 1004.4
20260506195524 61 186 0.9 5.2 0.04 0.13 0.11 92 1004.7
20260506195003 61 197 0.9 5.2 0.04 0.13 0.11 92 1004.7
20260506194524 61 194 0.9 5.2 0.03 0.12 0.11 92 1004.6
20260506194003 62 187 0.9 3.5 0.03 0.11 0.10 92 1004.9
20260506193503 61 190 0.9 3.5 0.03 0.11 0.10 92 1004.9
20260506193003 61 189 0.9 3.5 0.01 0.09 0.08 92 1004.8
20260506192524 61 193 0.9 7.0 0.01 0.09 0.08 92 1004.7
20260506192002 62 196 0.9 7.0 0.01 0.09 0.08 91 1005.0
20260506191503 62 191 0.0 3.5 0.02 0.09 0.08 92 1004.9
20260506191024 62 196 0.0 1.7 0.02 0.09 0.08 92 1004.8
20260506190524 62 194 0.0 1.7 0.02 0.09 0.08 92 1004.7
20260506190003 62 188 0.0 2.6 0.03 0.09 0.08 91 1004.8
20260506185503 62 190 0.0 2.6 0.03 0.09 0.08 91 1004.7
20260506185024 62 195 0.0 2.6 0.04 0.09 0.08 91 1005.0
20260506184503 61 189 0.0 2.6 0.04 0.09 0.08 91 1005.1
20260506184003 61 179 0.0 1.7 0.05 0.08 0.07 91 1005.7
20260506183524 61 183 0.9 3.5 0.05 0.08 0.07 91 1005.4
20260506183024 61 190 0.9 3.5 0.06 0.08 0.07 90 1005.5
20260506182503 62 198 0.9 3.5 0.06 0.08 0.07 90 1005.9
20260506182003 61 199 0.9 2.6 0.06 0.08 0.07 90 1005.9
20260506181503 62 192 0.9 2.6 0.06 0.07 0.06 90 1005.8
20260506181024 62 190 0.9 2.6 0.06 0.07 0.06 90 1005.8
20260506180503 61 190 0.9 2.6 0.06 0.07 0.06 89 1005.9
20260506180024 61 184 0.9 6.1 0.05 0.06 0.05 89 1005.9
20260506175503 62 188 0.9 6.1 0.05 0.06 0.05 88 1006.1
20260506175003 62 195 0.9 3.5 0.04 0.06 0.04 86 1006.1
20260506174524 62 192 0.9 5.2 0.04 0.05 0.04 85 1006.3
20260506174003 63 190 1.7 5.2 0.02 0.04 0.04 84 1006.3
20260506173503 63 187 0.9 2.6 0.02 0.04 0.02 83 1006.5
20260506173003 64 187 0.9 1.7 0.02 0.03 0.02 81 1006.5
20260506172503 64 189 0.9 2.6 0.01 0.02 0.01 79 1006.2
20260506172024 65 192 0.9 2.6 0.01 0.02 0.01 76 1006.2
20260506171503 66 200 0.9 3.5 0.00 0.01 0.00 75 1006.1
20260506171003 66 200 1.7 7.8 0.00 0.01 0.00 72 1006.3
20260506170503 67 187 1.7 7.8 0.00 0.01 0.00 69 1006.0
20260506170003 68 184 1.7 7.8 0.00 0.01 0.00 68 1006.2
20260506165503 68 196 2.6 7.8 0.00 0.01 0.00 66 1005.7
20260506165024 69 198 2.6 9.6 0.00 0.01 0.00 64 1005.8
20260506164503 69 193 1.7 9.6 0.00 0.01 0.00 65 1005.7
20260506164024 69 193 1.7 7.8 0.00 0.01 0.00 66 1005.9
20260506163503 69 202 1.7 7.8 0.00 0.01 0.00 66 1006.2
20260506163003 69 202 1.7 7.0 0.00 0.01 0.00 65 1006.1
20260506162503 69 205 1.7 7.0 0.00 0.01 0.00 66 1006.4
20260506162003 69 214 1.7 6.1 0.00 0.01 0.00 65 1006.2